Location: Borderline Observatory
(42.7345°N, 72.8696°W)
Time: 04:01:10
(UTC-05:00)

Daily predictions for brighter satellites

Satellite Brightness Start Highest point End
(mag) Time Altitude Azimuth Time Altitude Azimuth Time Altitude Azimuth
ADEOS II 4.2 02:56:31 10° NE 02:59:46 23° ENE 02:59:46 23° ENE
CZ-4C R/B 4.4 03:21:33 16° SE 03:23:05 17° ESE 03:26:40 10° ENE
Cosmos 2369 Rocket 3.3 03:29:05 38° NNE 03:29:05 38° NNE 03:32:29 10° NNE
Cosmos 1624 Rocket 4.5 03:58:05 54° N 03:58:05 54° N 04:02:10 10° NNE
Cosmos 2056 Rocket 3.9 03:59:39 53° NNE 03:59:39 53° NNE 04:03:38 10° NNE
Okean O Rocket 3.8 03:56:32 10° N 03:57:38 18° N 03:57:38 18° N
Cosmos 972 Rocket 4.4 04:03:53 55° N 04:03:53 55° N 04:08:16 10° NNE
ATLAS 5 CENTAUR R/B 2.3 04:04:34 55° NNE 04:04:34 55° NNE 04:08:42 10° NNE
ERS-2 4.3 04:03:57 10° NNE 04:05:17 21° NNE 04:05:17 21° NNE
Cosmos 1943 Rocket 2.0 04:10:09 85° WSW 04:10:17 87° WNW 04:15:53 10° NNE
Cosmos 2263 4.4 04:15:05 55° NW 04:15:05 55° NW 04:20:02 10° NNE
CZ-4B R/B 3.1 04:11:09 10° N 04:16:43 67° WNW 04:16:48 67° WNW
Lacrosse 5 rocket 3.7 04:16:57 13° N 04:17:34 13° NNE 04:19:27 10° NE
Lacrosse 5 1.7 04:19:12 79° NW 04:19:12 79° NW 04:24:19 10° NE
Nadezhda 2 Rocket 4.3 04:13:17 10° N 04:19:24 84° W 04:25:32 10° S
USA 234 3.2 04:16:53 10° NE 04:23:26 85° SE 04:26:04 40° SW
Thor Agena Rocket 3.6 04:27:30 10° SSE 04:32:43 79° ENE 04:37:53 10° NNW
Meteor 1-14 Rocket 4.4 04:27:05 10° N 04:32:56 76° E 04:38:37 10° SSE
Okean 1-7 3.5 04:31:27 10° S 04:35:39 60° E 04:39:52 10° NNE
Cosmos 1452 Rocket 3.4 04:36:33 25° SSW 04:39:41 89° WNW 04:45:00 10° NNE
Abrixas 4.4 04:41:04 24° NNE 04:41:04 24° NNE 04:42:46 10° NE
ADEOS II 2.4 04:35:43 10° N 04:40:40 43° WNW 04:40:44 43° WNW
Cosmos 1417 Rocket 4.4 04:36:36 10° S 04:42:46 87° E 04:48:56 10° N
ATLAS 3B R/B 4.2 04:39:07 10° S 04:46:00 39° ESE 04:52:41 10° NE
Cosmos 1782 Rocket 3.4 04:45:07 10° NNW 04:49:36 76° W 04:54:01 10° S
Cosmos 2297 Rocket 4.5 04:48:12 10° N 04:52:35 22° NE 04:56:56 10° ESE
Meteor 1-26 Rocket 4.1 04:47:20 10° SSW 04:52:58 66° WNW 04:58:34 10° N
Cosmos 407 Rocket 4.0 04:54:00 36° W 04:54:03 36° W 04:58:52 10° SSW
Okean-O 2.6 04:52:33 10° N 04:56:55 59° WNW 04:59:52 20° SSW
Cosmos 676 Rocket 4.2 04:54:01 10° NNW 04:59:06 46° WSW 05:04:08 10° S
Meteor 1-25 Rocket 4.3 04:53:45 10° N 04:59:37 89° ENE 05:05:28 10° S
Tiangong 1 0.9 05:00:17 63° SSW 05:00:28 65° SSE 05:03:24 10° E
SKYMED 2 3.7 04:57:52 10° SSE 05:02:11 79° ENE 05:06:33 10° N
Meteor 1-31 Rocket 3.1 05:01:47 10° N 05:05:30 43° WNW 05:06:42 32° WSW
Cosmos 2219 3.1 05:01:51 10° NNW 05:07:34 81° WSW 05:13:11 10° SSE
USA 81 4.2 05:05:18 10° S 05:10:33 75° E 05:15:50 10° N
CZ-4C R/B 2.1 05:06:48 19° SW 05:10:43 70° NW 05:16:45 10° NNE
Cosmos 2369 Rocket 3.7 05:10:53 17° NW 05:11:33 18° NW 05:15:19 10° N
Cosmos 1140 Rocket 3.5 05:07:18 10° NNW 05:12:26 57° WSW 05:17:33 10° S
Cosmos 2227 Rocket 3.6 05:07:40 10° N 05:12:59 38° ENE 05:18:15 10° SE
Cosmos 1656 Rocket 3.8 05:09:36 12° SW 05:14:53 58° WNW 05:20:30 10° NNE
Okean 2 Rocket 3.1 05:10:52 10° NNW 05:15:10 53° W 05:19:26 10° S
Cosmos 614 Rocket 3.9 05:14:09 10° NNW 05:19:13 66° WSW 05:24:17 10° S
CZ-4 R/B 4.2 05:16:14 10° NE 05:19:30 22° E 05:22:43 10° SE
Meteor 1-10 Rocket 4.2 05:18:34 10° S 05:24:08 86° E 05:29:49 10° N
Cosmos 1607 4.3 05:21:24 10° SSW 05:27:26 66° ESE 05:33:34 10° NE
S3M 4.1 05:24:51 10° SSW 05:31:01 53° WNW 05:37:10 10° N
Cosmos 2151 Rocket 3.5 05:30:04 10° NNW 05:34:35 72° W 05:39:01 10° S
PAYLOAD A 4.5 05:32:57 10° NNE 05:37:39 61° ESE 05:42:27 10° S
Cosmos 1553 Rocket 4.3 05:32:28 10° SSW 05:38:20 44° WNW 05:44:22 10° N
Cosmos 1850 Rocket 4.2 05:36:21 10° NNW 05:41:30 50° WSW 05:46:36 10° S
Cosmos 1633 2.5 05:42:30 10° N 05:46:08 88° ENE 05:49:45 10° S
Meteor 2-11 Rocket 4.5 05:42:29 10° SSW 05:48:29 60° W 05:54:35 10° N
ATLAS 5 CENTAUR R/B 3.7 05:46:07 11° WNW 05:49:10 17° NNW 05:52:37 10° N
Radarsat Rocket 4.4 05:42:58 10° N 05:50:06 55° WNW 05:56:23 10° SW
COSMO-SKYMED 1 3.3 05:46:31 10° SSW 05:50:21 31° W 05:54:14 10° NNW
Cosmos 1536 3.9 05:46:47 10° N 05:50:40 48° ENE 05:54:34 10° SSE
Ariane Rocket 3.0 05:46:45 10° N 05:51:51 75° WNW 05:56:53 10° SSW
Cosmos 1943 Rocket 3.8 05:51:42 10° W 05:54:54 16° NW 05:58:09 10° N
IDEFIX/ARIANE 42P 3.1 05:50:09 10° NNE 05:55:22 65° ESE 06:00:31 10° S
Lacrosse 5 rocket 1.6 05:53:54 10° NW 05:57:28 56° NE 06:01:01 10° ESE
Meteor 1-28 Rocket 4.1 05:56:46 10° SSW 05:59:59 28° W 06:03:15 10° NW
Meteor 1-27 Rocket 3.8 05:54:42 10° SSW 06:00:28 79° W 06:06:24 10° N
Lacrosse 5 3.3 05:58:49 10° WNW 06:02:53 23° NNW 06:06:58 10° NNE
USA 234 3.9 06:00:09 10° NE 06:06:05 38° NNW 06:11:59 10° W
IRS-1A Rocket 4.4 06:00:59 10° NNE 06:06:36 81° ESE 06:12:06 10° SSW
